[Date Prev][Date Next][Thread Prev][Thread Next] - [Date Index][Thread Index][Author Index]

2 Line ISS Keps 1-12



ISS
1 25544U 98067A   03012.22796433  .00021812  00000-0  28127-3 0  5726
2 25544  51.6354  83.6723 0005175  24.8179  71.8475 15.58921593236678


----
Via the sarex mailing list at AMSAT.ORG courtesy of AMSAT-NA.
To unsubscribe, send "unsubscribe sarex" to Majordomo@amsat.org



AMSAT Top AMSAT Home